Regional Weather Roundup
Issued by NWS

Home | Current Version | Previous Version | Graphics & Text | Print | Product List | Glossary On
Versions: 1 2 3 4 5 6 7 8 9 10 11 12 13 14 15 16 17 18 19 20 21 22 23 24 25 26 27 28 29 30 31 32 33 34 35 36 37 38 39 40 41 42 43 44 45 46 47 48 49 50
843
ASUS43 KLMK 290710
RWRKY
KENTUCKY REGIONAL WEATHER ROUNDUP
NATIONAL WEATHER SERVICE LOUISVILLE KY
300 AM EDT WED MAR 29 2017

NOTE "FAIR" INDICATES FEW OR NO CLOUDS BELOW 12,000 FEET
WITH NO SIGNIFICANT WEATHER AND/OR OBSTRUCTIONS TO VISIBILITY.

KYZ001>023-026-027-061>063-070>075-290800-
WESTERN AND SOUTH CENTRAL KENTUCKY

CITY           SKY/WX    TMP DP  RH WIND       PRES   REMARKS
PADUCAH        CLEAR     51  48  89 CALM      30.04S
HENDERSON      CLOUDY    55  48  76 NE9       30.05F
OWENSBORO        N/A    N/A N/A N/A MISG        N/A
HOPKINSVILLE   CLEAR     50  50 100 NE6       30.03F FOG
BOWLING GREEN  CLEAR     54  51  90 NE5       30.07S
GLASGOW        CLOUDY    55  55 100 CALM      30.08R
$$

KYZ024-025-028>034-038-045-046-053-290800-
NORTH CENTRAL KENTUCKY

CITY           SKY/WX    TMP DP  RH WIND       PRES   REMARKS
LOUISVILLE/SDF CLOUDY    54  48  80 NE5       30.11R
LOUISVILLE/LOU CLEAR     53  47  79 CALM      30.11S
FORT KNOX      CLEAR     51  49  91 N3        30.09R
$$

KYZ035>037-039>044-047>052-055>060-089>105-290800-
NORTHEAST KENTUCKY

CITY           SKY/WX    TMP DP  RH WIND       PRES   REMARKS
LEXINGTON      CLOUDY    53  49  86 NE9       30.10S
COVINGTON      CLOUDY    51  46  83 NE13      30.12S
FRANKFORT      MOCLDY    52  46  80 NE5       30.09S
$$

KYZ054-064>069-076>088-106>120-290800-
SOUTHEAST KENTUCKY

CITY           SKY/WX    TMP DP  RH WIND       PRES   REMARKS
JACKSON        CLOUDY    55  51  86 CALM      30.08F
LONDON         MOCLDY    56  51  84 NE9       30.06F
SOMERSET       CLOUDY    54  52  94 N3        30.08S
MIDDLESBORO    CLEAR     50  49  99 CALM      30.06F
MONTICELLO     SUNNY     52  51  97 NW8       30.08S
$$





USA.gov is the U.S. government's official web portal to all federal, state and local government web resources and services.